Location: Manchester NH
(43.0000°N, 71.5000°W)
Time: 20:28:18
(UTC-04:00)

Envisat - Visible Passes

Search period start: 20 April 2019 00:00
Search period end: 30 April 2019 00:00
Orbit: 764 x 766 km, 98.2° (Epoch: 20 April)

Date Brightness Start Highest point End Pass type
(mag) Time Alt. Az. Time Alt. Az. Time Alt. Az.
20 Apr 4.9 20:03:40 10° SSW 20:08:12 33° W 20:12:46 10° NNW visible
22 Apr 5.7 20:30:23 10° SW 20:33:57 19° W 20:37:32 10° NW visible
24 Apr 6.2 20:58:53 10° W 20:59:48 10° W 21:00:42 10° WNW visible
25 Apr 5.5 20:18:34 10° SSW 20:22:37 24° W 20:26:42 10° NW visible
27 Apr 5.9 20:45:55 10° WSW 20:48:25 14° W 20:50:56 10° WNW visible
28 Apr 5.1 20:06:54 10° SSW 20:11:18 30° W 20:15:46 10° NW visible
